Location: Rowland
(34.5359°N, 79.2929°W)
Time: 15:51:20
(UTC+00:00)

A-11 Canister half - Pass Details

Date: 05 October 2022
Orbit: 1515 x 1684 km, 47.2° (Epoch: 06 December)

Event Time Altitude Azimuth Distance (km) Brightness Sun altitude
Exits shadow 07:19:01 24° 114° (ESE) 2,749 10.4 -47.1°
Drops below altitude 10° 07:21:59 10° 118° (ESE) 3,672 11.2 -46.6°
Sets 07:25:02 0° 120° (ESE) 4,660 11.8 -46.1°
